Location: Bagatelle
(13.1500°N, 59.6167°W)
Time: 04:19:05
(UTC+00:00)

Daily predictions for brighter satellites

Satellite Brightness Start Highest point End
(mag) Time Altitude Azimuth Time Altitude Azimuth Time Altitude Azimuth
Intelsat 5-3 Rocket 4.4 00:05:21 10° W 00:10:53 58° SSW 00:11:58 55° S
Centaur D-1AR AC-40 3.3 00:03:53 10° WNW 00:11:58 41° NNW 00:11:58 41° NNW
ARIANE 5 R/B 3.7 00:11:51 10° W 00:29:39 49° SW 00:29:39 49° SW
Intelsat 5-1 Rocket 4.2 00:28:49 10° W 00:41:41 51° NW 00:41:41 51° NW
Cosmos 2322 Rocket 4.3 07:13:39 19° NNE 07:13:39 19° NNE 07:15:11 10° NNE
SL-16 R/B 4.5 07:23:36 15° NNE 07:23:36 15° NNE 07:24:29 10° NNE
Milstar 3 Cent rocket 4.4 07:40:34 40° SW 07:41:52 41° SSW 07:59:37 10° SE
CZ-2C R/B 3.8 07:42:57 10° N 07:45:35 31° N 07:45:35 31° N
Cosmos 1570 Rocket 4.2 07:50:53 69° ENE 07:50:53 69° ENE 07:55:44 10° NNE
H-2A R/B 3.2 07:47:19 10° SSE 07:51:19 41° ENE 07:55:24 10° N
Cosmos 2333 Rocket 4.2 07:54:29 10° SSE 07:59:14 27° ESE 08:04:00 10° NE
SJ 16-02 3.3 07:55:52 10° NNE 07:59:38 28° ENE 08:03:25 10° SE
Cosmos 1605 Rocket 3.9 07:55:37 10° N 08:02:01 88° W 08:08:22 10° S
Landsat 5 3.9 07:57:51 10° SSE 08:02:16 65° ENE 08:06:44 10° N
Cosmos 540 Rocket 3.5 08:04:42 64° NNW 08:04:42 64° NNW 08:09:09 10° N
ERS-2 4.1 08:03:50 10° SE 08:07:01 28° ENE 08:10:11 10° NNE
FUSE 4.1 08:13:46 47° NW 08:15:10 66° NNE 08:20:32 10° ESE
Cosmos 1727 Rocket 4.3 08:18:43 42° W 08:18:43 42° W 08:24:31 10° NNW
CSL-04 DEB 4.3 08:16:45 10° S 08:20:55 75° WSW 08:25:11 10° NNW
Cosmos 2333 4.4 08:19:45 10° S 08:25:29 76° ESE 08:31:15 10° NNE
CZ-4B R/B 4.3 08:22:18 10° NNE 08:26:45 73° ESE 08:31:13 10° S
ALOS 2.2 08:24:01 10° NNE 08:28:40 90° ENE 08:33:20 10° SSW
ARIANE 5 DEB (SYLDA) 4.0 08:27:41 31° SSW 08:28:43 37° S 08:32:48 10° ESE
Cosmos 1437 Rocket 3.0 08:26:53 10° S 08:30:37 64° E 08:34:19 10° NNE
Hubble Space Telescope 0.7 08:29:49 50° SW 08:30:48 79° SSE 08:34:55 10° ENE
Cosmos 1484 Rocket 2.7 08:27:46 10° N 08:31:45 74° W 08:35:41 10° SSW
Meteor 1-27 Rocket 4.3 08:31:37 33° WSW 08:32:47 36° W 08:38:09 10° NNW
ADEOS Rocket 3.6 08:25:57 10° SSE 08:33:20 71° ENE 08:40:00 10° N
OAO 3 Rocket 3.3 08:32:01 41° W 08:33:35 63° NNW 08:38:28 10° NE
Cosmos 2360 Rocket 2.8 08:35:23 32° W 08:36:33 35° WNW 08:41:41 10° N
Cosmos 1536 3.3 08:34:33 10° N 08:38:34 64° E 08:42:34 10° SSE
Cosmos 2100 Rocket 4.4 08:32:19 10° N 08:38:39 67° E 08:44:54 10° SSE
Meteor 1-11 Rocket 3.6 08:33:59 10° N 08:39:37 86° W 08:45:10 10° S
Cosmos 2123 Rocket 4.0 08:35:57 10° S 08:42:09 84° E 08:48:24 10° N
Meteor 1-31 Rocket 2.7 08:39:25 10° N 08:43:12 62° WNW 08:47:02 10° SSW
Delta 142 4.4 08:40:30 27° W 08:43:56 58° NNW 08:48:58 10° NE
deb Chang Zheng 4 4.4 08:46:47 10° NNW 08:50:21 27° WNW 08:51:35 23° WSW
METEOR-M 4.1 08:46:09 10° N 08:51:24 62° WNW 08:56:40 10° SSW
Cosmos 2242 Rocket 3.6 08:47:21 10° S 08:51:45 83° E 08:56:08 10° N
Cosmos 1898 Rocket 3.7 08:47:54 10° N 08:53:10 76° ENE 08:58:28 10° SSE
Cosmos 1459 Rocket 4.0 08:47:44 10° N 08:53:47 84° E 08:59:50 10° S
SAR-Lupe-4 4.2 08:51:36 10° SSE 08:55:07 58° ENE 08:58:38 10° N
ARIANE 5 DEB (SYLDA) 4.2 08:48:56 16° WSW 08:55:22 35° S 08:59:50 10° ESE
ARIANE 5 R/B 4.1 08:53:38 16° SW 08:55:55 27° S 08:59:45 10° ESE
Okean 1-7 3.8 08:52:03 10° S 08:56:15 56° E 09:00:24 10° NNE
Cosmos 1666 3.4 08:58:14 10° NNW 09:01:35 31° W 09:04:54 10° SSW
FENGYUN 3A 4.2 08:57:41 10° N 09:02:35 36° WNW 09:07:30 10° SW
SAR-Lupe-1 4.0 09:03:42 10° SSE 09:07:15 90° SE 09:10:48 10° NNW
Cosmos 2263 Rocket 2.4 09:05:19 10° NNW 09:10:44 48° WSW 09:16:11 10° S
Delta 202 4.1 09:07:57 12° WNW 09:12:47 48° N 09:18:06 10° ENE
GPS 2-15 Rocket1 3.7 09:09:07 10° WNW 09:13:38 50° N 09:18:09 10° E
Meteor 2-4 Rocket 4.3 09:08:10 10° S 09:13:44 63° E 09:19:09 10° NNE
GEOS 3 Rocket 3.6 09:09:34 10° NNE 09:14:54 76° WNW 09:20:07 10° SW
H-2A R/B 3.8 09:12:48 10° NNE 09:16:20 47° E 09:19:52 10° S
DELTA 4 R/B 3.6 09:06:58 10° WNW 09:17:10 38° N 09:20:23 10° ENE
Cosmos 1937 Rocket 3.4 09:13:30 10° NNW 09:18:37 83° WSW 09:23:46 10° S
FALCON 9 DEB 3.0 09:16:21 10° SSW 09:19:31 77° SE 09:22:40 10° NE
Chandra Rocket (1) 3.2 09:10:19 10° WNW 09:19:42 53° NNE 09:23:05 10° E
SWIFT 4.4 09:16:51 10° SSW 09:20:12 22° SSE 09:23:32 10° ESE
Cosmos 1733 Rocket 3.3 09:16:27 10° NNW 09:20:33 43° W 09:24:38 10° SSW
GPS 2-18 Rocket1 4.3 09:19:06 10° WNW 09:22:44 36° N 09:26:25 10° ENE
NOSS 0 Rocket 4.3 09:17:49 10° S 09:23:57 72° ESE 09:30:08 10° NNE
Cosmos 2173 Rocket 4.4 09:20:50 10° NNW 09:26:49 44° W 09:32:48 10° SSW
Cosmos 2219 Rocket 2.7 09:21:46 10° SW 09:26:57 38° WNW 09:32:10 10° N
CZ-4B R/B 2.4 09:24:40 10° SSW 09:27:04 21° W 09:29:31 10° NW
FALCON 9 DEB 2.8 09:25:17 10° SW 09:28:27 74° NW 09:31:36 10° NNE
Sakura Rocket 4.2 09:26:08 10° W 09:29:14 21° SSW 09:32:05 10° SSE
ARIANE 5 R/B 4.3 09:17:28 10° WSW 09:33:40 27° SSW 09:37:46 10° SE
CZ-3 R/B 3.2 09:28:50 10° SW 09:44:17 42° SSE 09:49:21 10° E
